owner,sensor,date,latitude,longitude,vertical_datum,mass_concentration_of_oxygen_in_sea_water,qcFlag 
SCCF RECON,ioos:station:SCCF:13:1,2019-02-01T05:00:00Z,26.5255,-82.0032,2.45,6.33,1111122 
SCCF RECON,ioos:station:SCCF:13:1,2019-02-01T06:00:00Z,26.5255,-82.0032,2.37,6.58,1111122 
SCCF RECON,ioos:station:SCCF:13:1,2019-02-01T07:00:00Z,26.5255,-82.0032,2.26,6.79,1111122 
SCCF RECON,ioos:station:SCCF:13:1,2019-02-01T08:00:00Z,26.5255,-82.0032,2.16,7.4,1111122 
SCCF RECON,ioos:station:SCCF:13:1,2019-02-01T09:00:00Z,26.5255,-82.0032,2.09,7.47,1111122 
SCCF RECON,ioos:station:SCCF:13:1,2019-02-01T10:00:00Z,26.5255,-82.0032,2.03,7.58,1111122 
SCCF RECON,ioos:station:SCCF:13:1,2019-02-01T11:00:00Z,26.5255,-82.0032,1.987,7.53,1111122 
SCCF RECON,ioos:station:SCCF:13:1,2019-02-01T12:00:00Z,26.5255,-82.0032,2.03,7.55,1111122 
SCCF RECON,ioos:station:SCCF:13:1,2019-02-01T13:00:00Z,26.5255,-82.0032,2.13,7.49,1111122 
SCCF RECON,ioos:station:SCCF:13:1,2019-02-01T14:00:00Z,26.5255,-82.0032,2.22,7.07,1111122 
SCCF RECON,ioos:station:SCCF:13:1,2019-02-01T15:00:00Z,26.5255,-82.0032,2.3,6.84,1111122 
SCCF RECON,ioos:station:SCCF:13:1,2019-02-01T16:00:00Z,26.5255,-82.0032,2.366,6.77,1111122 
SCCF RECON,ioos:station:SCCF:13:1,2019-02-01T17:00:00Z,26.5255,-82.0032,2.41,6.39,1111122 
SCCF RECON,ioos:station:SCCF:13:1,2019-02-01T18:00:00Z,26.5255,-82.0032,2.438,6.75,1111122 
SCCF RECON,ioos:station:SCCF:13:1,2019-02-01T19:00:00Z,26.5255,-82.0032,2.449,6.95,1111122 
SCCF RECON,ioos:station:SCCF:13:1,2019-02-01T20:00:00Z,26.5255,-82.0032,2.4,7.02,1111122 
SCCF RECON,ioos:station:SCCF:13:1,2019-02-01T21:00:00Z,26.5255,-82.0032,2.364,6.75,1111122 
SCCF RECON,ioos:station:SCCF:13:1,2019-02-01T22:00:00Z,26.5255,-82.0032,2.37,6.82,1111122 
SCCF RECON,ioos:station:SCCF:13:1,2019-02-02T05:00:00Z,26.5255,-82.0032,2.6,6.43,1111122 
SCCF RECON,ioos:station:SCCF:13:1,2019-02-02T06:00:00Z,26.5255,-82.0032,2.54,6.54,1111122 
SCCF RECON,ioos:station:SCCF:13:1,2019-02-02T07:00:00Z,26.5255,-82.0032,2.43,6.56,1111122 
SCCF RECON,ioos:station:SCCF:13:1,2019-02-02T08:00:00Z,26.5255,-82.0032,2.32,7.1,1111122 
SCCF RECON,ioos:station:SCCF:13:1,2019-02-02T09:00:00Z,26.5255,-82.0032,2.23,7.14,1111122 
SCCF RECON,ioos:station:SCCF:13:1,2019-02-02T10:00:00Z,26.5255,-82.0032,2.138,7.21,1111122 
SCCF RECON,ioos:station:SCCF:13:1,2019-02-02T11:00:00Z,26.5255,-82.0032,2.06,7.18,1111122 
SCCF RECON,ioos:station:SCCF:13:1,2019-02-02T12:00:00Z,26.5255,-82.0032,2.03,7.16,1111122 
SCCF RECON,ioos:station:SCCF:13:1,2019-02-02T13:00:00Z,26.5255,-82.0032,2.08,7.18,1111122 
SCCF RECON,ioos:station:SCCF:13:1,2019-02-02T14:00:00Z,26.5255,-82.0032,2.21,7.14,1111122 
SCCF RECON,ioos:station:SCCF:13:1,2019-02-02T15:00:00Z,26.5255,-82.0032,2.298,6.57,1111122 
SCCF RECON,ioos:station:SCCF:13:1,2019-02-02T16:00:00Z,26.5255,-82.0032,2.351,6.64,1111122 
SCCF RECON,ioos:station:SCCF:13:1,2019-02-02T17:00:00Z,26.5255,-82.0032,2.42,6.7,1111122 
SCCF RECON,ioos:station:SCCF:13:1,2019-02-02T18:00:00Z,26.5255,-82.0032,2.46,6.45,1111122 
SCCF RECON,ioos:station:SCCF:13:1,2019-02-02T19:00:00Z,26.5255,-82.0032,2.452,6.61,1111122 
SCCF RECON,ioos:station:SCCF:13:1,2019-02-02T20:00:00Z,26.5255,-82.0032,2.41,6.69,1111122 
SCCF RECON,ioos:station:SCCF:13:1,2019-02-02T21:00:00Z,26.5255,-82.0032,2.369,6.33,1111122 
SCCF RECON,ioos:station:SCCF:13:1,2019-02-02T22:00:00Z,26.5255,-82.0032,2.35,6.49,1111122 
SCCF RECON,ioos:station:SCCF:13:1,2019-02-03T05:00:00Z,26.5255,-82.0032,2.65,6.22,1111122 
SCCF RECON,ioos:station:SCCF:13:1,2019-02-03T06:00:00Z,26.5255,-82.0032,2.62,6.16,1111122 
SCCF RECON,ioos:station:SCCF:13:1,2019-02-03T07:00:00Z,26.5255,-82.0032,2.52,6.27,1111122 
SCCF RECON,ioos:station:SCCF:13:1,2019-02-03T08:00:00Z,26.5255,-82.0032,2.39,6.5,1111122 
SCCF RECON,ioos:station:SCCF:13:1,2019-02-03T09:00:00Z,26.5255,-82.0032,2.281,6.66,1111122 
SCCF RECON,ioos:station:SCCF:13:1,2019-02-03T10:00:00Z,26.5255,-82.0032,2.2,6.79,1111122 
SCCF RECON,ioos:station:SCCF:13:1,2019-02-03T11:00:00Z,26.5255,-82.0032,2.11,6.86,1111122 
SCCF RECON,ioos:station:SCCF:13:1,2019-02-03T12:00:00Z,26.5255,-82.0032,2.05,6.78,1111122 
SCCF RECON,ioos:station:SCCF:13:1,2019-02-03T13:00:00Z,26.5255,-82.0032,2.03,6.76,1111122 
SCCF RECON,ioos:station:SCCF:13:1,2019-02-03T14:00:00Z,26.5255,-82.0032,2.13,6.83,1111122 
SCCF RECON,ioos:station:SCCF:13:1,2019-02-03T15:00:00Z,26.5255,-82.0032,2.26,6.83,1111122 
SCCF RECON,ioos:station:SCCF:13:1,2019-02-03T16:00:00Z,26.5255,-82.0032,2.33,6.57,1111122 
SCCF RECON,ioos:station:SCCF:13:1,2019-02-03T17:00:00Z,26.5255,-82.0032,2.38,6.41,1111122 
SCCF RECON,ioos:station:SCCF:13:1,2019-02-03T18:00:00Z,26.5255,-82.0032,2.432,6.26,1111122 
SCCF RECON,ioos:station:SCCF:13:1,2019-02-03T19:00:00Z,26.5255,-82.0032,2.436,6.41,1111122 
SCCF RECON,ioos:station:SCCF:13:1,2019-02-03T20:00:00Z,26.5255,-82.0032,2.39,6.34,1111122 
SCCF RECON,ioos:station:SCCF:13:1,2019-02-03T21:00:00Z,26.5255,-82.0032,2.34,6.18,1111122 
SCCF RECON,ioos:station:SCCF:13:1,2019-02-03T22:00:00Z,26.5255,-82.0032,2.291,6.57,1111122 
SCCF RECON,ioos:station:SCCF:13:1,2019-02-04T05:00:00Z,26.5255,-82.0032,2.628,6.14,1111122 
SCCF RECON,ioos:station:SCCF:13:1,2019-02-04T06:00:00Z,26.5255,-82.0032,2.627,6.08,1111122 
SCCF RECON,ioos:station:SCCF:13:1,2019-02-04T07:00:00Z,26.5255,-82.0032,2.55,5.96,1111122 
SCCF RECON,ioos:station:SCCF:13:1,2019-02-04T08:00:00Z,26.5255,-82.0032,2.436,6.06,1111122 
SCCF RECON,ioos:station:SCCF:13:1,2019-02-04T09:00:00Z,26.5255,-82.0032,2.32,5.91,1111122 
SCCF RECON,ioos:station:SCCF:13:1,2019-02-04T10:00:00Z,26.5255,-82.0032,2.236,6.32,1111122 
SCCF RECON,ioos:station:SCCF:13:1,2019-02-04T11:00:00Z,26.5255,-82.0032,2.152,6.44,1111122 
SCCF RECON,ioos:station:SCCF:13:1,2019-02-04T12:00:00Z,26.5255,-82.0032,2.072,6.5,1111122 
SCCF RECON,ioos:station:SCCF:13:1,2019-02-04T13:00:00Z,26.5255,-82.0032,2.024,6.45,1111122 
SCCF RECON,ioos:station:SCCF:13:1,2019-02-04T14:00:00Z,26.5255,-82.0032,2.05,6.64,1111122 
SCCF RECON,ioos:station:SCCF:13:1,2019-02-04T15:00:00Z,26.5255,-82.0032,2.176,6.83,1111122 
SCCF RECON,ioos:station:SCCF:13:1,2019-02-04T16:00:00Z,26.5255,-82.0032,2.29,6.56,1111122 
SCCF RECON,ioos:station:SCCF:13:1,2019-02-04T17:00:00Z,26.5255,-82.0032,2.36,6.16,1111122 
SCCF RECON,ioos:station:SCCF:13:1,2019-02-04T18:00:00Z,26.5255,-82.0032,2.4,5.86,1111122 
SCCF RECON,ioos:station:SCCF:13:1,2019-02-04T19:00:00Z,26.5255,-82.0032,2.426,6.59,1111122 
SCCF RECON,ioos:station:SCCF:13:1,2019-02-04T20:00:00Z,26.5255,-82.0032,2.409,6.16,1111122 
SCCF RECON,ioos:station:SCCF:13:1,2019-02-04T21:00:00Z,26.5255,-82.0032,2.35,6.15,1111122 
SCCF RECON,ioos:station:SCCF:13:1,2019-02-04T22:00:00Z,26.5255,-82.0032,2.316,5.93,1111122 
SCCF RECON,ioos:station:SCCF:13:1,2019-02-05T05:00:00Z,26.5255,-82.0032,2.599,6.01,1111122 
SCCF RECON,ioos:station:SCCF:13:1,2019-02-05T06:00:00Z,26.5255,-82.0032,2.63,5.66,1111122 
SCCF RECON,ioos:station:SCCF:13:1,2019-02-05T07:00:00Z,26.5255,-82.0032,2.595,5.59,1111122 
SCCF RECON,ioos:station:SCCF:13:1,2019-02-05T08:00:00Z,26.5255,-82.0032,2.47,5.44,1111122 
SCCF RECON,ioos:station:SCCF:13:1,2019-02-05T09:00:00Z,26.5255,-82.0032,2.341,5.6,1111122 
SCCF RECON,ioos:station:SCCF:13:1,2019-02-05T10:00:00Z,26.5255,-82.0032,2.26,5.86,1111122 
SCCF RECON,ioos:station:SCCF:13:1,2019-02-05T11:00:00Z,26.5255,-82.0032,2.18,6.08,1111122 
SCCF RECON,ioos:station:SCCF:13:1,2019-02-05T12:00:00Z,26.5255,-82.0032,2.1,6.33,1111122 
SCCF RECON,ioos:station:SCCF:13:1,2019-02-05T13:00:00Z,26.5255,-82.0032,2.035,6.21,1111122 
SCCF RECON,ioos:station:SCCF:13:1,2019-02-05T14:00:00Z,26.5255,-82.0032,2.02,6.37,1111122 
SCCF RECON,ioos:station:SCCF:13:1,2019-02-05T15:00:00Z,26.5255,-82.0032,2.13,6.54,1111122 
SCCF RECON,ioos:station:SCCF:13:1,2019-02-05T16:00:00Z,26.5255,-82.0032,2.27,6.64,1111122 
SCCF RECON,ioos:station:SCCF:13:1,2019-02-05T18:00:00Z,26.5255,-82.0032,2.399,5.8,1111122 
SCCF RECON,ioos:station:SCCF:13:1,2019-02-05T19:00:00Z,26.5255,-82.0032,2.45,6.18,1111122 
SCCF RECON,ioos:station:SCCF:13:1,2019-02-05T20:00:00Z,26.5255,-82.0032,2.45,6.43,1111122 
SCCF RECON,ioos:station:SCCF:13:1,2019-02-05T21:00:00Z,26.5255,-82.0032,2.39,5.85,1111122 
SCCF RECON,ioos:station:SCCF:13:1,2019-02-05T22:00:00Z,26.5255,-82.0032,2.313,5.61,1111122 
SCCF RECON,ioos:station:SCCF:13:1,2019-02-06T05:00:00Z,26.5255,-82.0032,2.58,5.61,1111122 
SCCF RECON,ioos:station:SCCF:13:1,2019-02-06T06:00:00Z,26.5255,-82.0032,2.62,5.36,1111122 
SCCF RECON,ioos:station:SCCF:13:1,2019-02-06T07:00:00Z,26.5255,-82.0032,2.635,5.38,1111122 
SCCF RECON,ioos:station:SCCF:13:1,2019-02-06T08:00:00Z,26.5255,-82.0032,2.56,5.23,1111122 
SCCF RECON,ioos:station:SCCF:13:1,2019-02-06T09:00:00Z,26.5255,-82.0032,2.443,5.32,1111122 
SCCF RECON,ioos:station:SCCF:13:1,2019-02-06T10:00:00Z,26.5255,-82.0032,2.33,5.32,1111122 
SCCF RECON,ioos:station:SCCF:13:1,2019-02-06T11:00:00Z,26.5255,-82.0032,2.24,5.68,1111122 
SCCF RECON,ioos:station:SCCF:13:1,2019-02-06T12:00:00Z,26.5255,-82.0032,2.166,5.94,1111122 
SCCF RECON,ioos:station:SCCF:13:1,2019-02-06T13:00:00Z,26.5255,-82.0032,2.088,5.95,1111122 
SCCF RECON,ioos:station:SCCF:13:1,2019-02-06T14:00:00Z,26.5255,-82.0032,2.04,6.06,1111122 
SCCF RECON,ioos:station:SCCF:13:1,2019-02-06T15:00:00Z,26.5255,-82.0032,2.08,6.33,1111122 
SCCF RECON,ioos:station:SCCF:13:1,2019-02-06T16:00:00Z,26.5255,-82.0032,2.218,6.5,1111122 
SCCF RECON,ioos:station:SCCF:13:1,2019-02-06T17:00:00Z,26.5255,-82.0032,2.32,6.82,1111122 
SCCF RECON,ioos:station:SCCF:13:1,2019-02-06T18:00:00Z,26.5255,-82.0032,2.37,6.35,1111122 
SCCF RECON,ioos:station:SCCF:13:1,2019-02-06T19:00:00Z,26.5255,-82.0032,2.42,6.37,1111122 
SCCF RECON,ioos:station:SCCF:13:1,2019-02-06T20:00:00Z,26.5255,-82.0032,2.463,6.43,1111122 
SCCF RECON,ioos:station:SCCF:13:1,2019-02-06T22:00:00Z,26.5255,-82.0032,2.39,6.28,1111122 
SCCF RECON,ioos:station:SCCF:13:1,2019-02-07T05:00:00Z,26.5255,-82.0032,2.54,5.97,1111122 
SCCF RECON,ioos:station:SCCF:13:1,2019-02-07T06:00:00Z,26.5255,-82.0032,2.58,6.11,1111122 
SCCF RECON,ioos:station:SCCF:13:1,2019-02-07T07:00:00Z,26.5255,-82.0032,2.62,5.89,1111122 
SCCF RECON,ioos:station:SCCF:13:1,2019-02-07T08:00:00Z,26.5255,-82.0032,2.584,5.25,1111122 
SCCF RECON,ioos:station:SCCF:13:1,2019-02-07T09:00:00Z,26.5255,-82.0032,2.49,5.06,1111122 
SCCF RECON,ioos:station:SCCF:13:1,2019-02-07T10:00:00Z,26.5255,-82.0032,2.37,5.02,1111122 
SCCF RECON,ioos:station:SCCF:13:1,2019-02-07T11:00:00Z,26.5255,-82.0032,2.27,5.24,1111122 
SCCF RECON,ioos:station:SCCF:13:1,2019-02-07T12:00:00Z,26.5255,-82.0032,2.2,5.53,1111122 
SCCF RECON,ioos:station:SCCF:13:1,2019-02-07T13:00:00Z,26.5255,-82.0032,2.13,5.59,1111122 
SCCF RECON,ioos:station:SCCF:13:1,2019-02-07T14:00:00Z,26.5255,-82.0032,2.067,6.38,1111122 
SCCF RECON,ioos:station:SCCF:13:1,2019-02-07T15:00:00Z,26.5255,-82.0032,2.047,6.64,1111122 
SCCF RECON,ioos:station:SCCF:13:1,2019-02-07T16:00:00Z,26.5255,-82.0032,2.15,6.8,1111122 
SCCF RECON,ioos:station:SCCF:13:1,2019-02-07T17:00:00Z,26.5255,-82.0032,2.283,6.59,1111122 
SCCF RECON,ioos:station:SCCF:13:1,2019-02-07T18:00:00Z,26.5255,-82.0032,2.357,6.46,1111122 
SCCF RECON,ioos:station:SCCF:13:1,2019-02-07T19:00:00Z,26.5255,-82.0032,2.395,6.05,1111122 
SCCF RECON,ioos:station:SCCF:13:1,2019-02-07T20:00:00Z,26.5255,-82.0032,2.44,6.29,1111122 
SCCF RECON,ioos:station:SCCF:13:1,2019-02-07T21:00:00Z,26.5255,-82.0032,2.443,6.38,1111122 
SCCF RECON,ioos:station:SCCF:13:1,2019-02-07T22:00:00Z,26.5255,-82.0032,2.404,6.36,1111122 
SCCF RECON,ioos:station:SCCF:13:1,2019-02-08T05:00:00Z,26.5255,-82.0032,2.497,5.79,1111122 
SCCF RECON,ioos:station:SCCF:13:1,2019-02-08T06:00:00Z,26.5255,-82.0032,2.57,5.95,1111122 
SCCF RECON,ioos:station:SCCF:13:1,2019-02-08T07:00:00Z,26.5255,-82.0032,2.609,5.84,1111122 
SCCF RECON,ioos:station:SCCF:13:1,2019-02-08T08:00:00Z,26.5255,-82.0032,2.61,5.85,1111122 
SCCF RECON,ioos:station:SCCF:13:1,2019-02-08T09:00:00Z,26.5255,-82.0032,2.55,5.19,1111122 
SCCF RECON,ioos:station:SCCF:13:1,2019-02-08T10:00:00Z,26.5255,-82.0032,2.455,5.15,1111122 
SCCF RECON,ioos:station:SCCF:13:1,2019-02-08T11:00:00Z,26.5255,-82.0032,2.348,5.17,1111122 
SCCF RECON,ioos:station:SCCF:13:1,2019-02-08T12:00:00Z,26.5255,-82.0032,2.27,5.84,1111122 
SCCF RECON,ioos:station:SCCF:13:1,2019-02-08T13:00:00Z,26.5255,-82.0032,2.202,6.12,1111122 
SCCF RECON,ioos:station:SCCF:13:1,2019-02-08T14:00:00Z,26.5255,-82.0032,2.14,6.3,1111122 
SCCF RECON,ioos:station:SCCF:13:1,2019-02-08T15:00:00Z,26.5255,-82.0032,2.099,6.41,1111122 
SCCF RECON,ioos:station:SCCF:13:1,2019-02-08T16:00:00Z,26.5255,-82.0032,2.125,6.62,1111122 
SCCF RECON,ioos:station:SCCF:13:1,2019-02-08T17:00:00Z,26.5255,-82.0032,2.25,6.68,1111122 
SCCF RECON,ioos:station:SCCF:13:1,2019-02-08T18:00:00Z,26.5255,-82.0032,2.357,6.64,1111122 
SCCF RECON,ioos:station:SCCF:13:1,2019-02-08T19:00:00Z,26.5255,-82.0032,2.408,6.26,1111122 
SCCF RECON,ioos:station:SCCF:13:1,2019-02-08T21:00:00Z,26.5255,-82.0032,2.44,5.99,1111122 
SCCF RECON,ioos:station:SCCF:13:1,2019-02-08T22:00:00Z,26.5255,-82.0032,2.39,5.95,1111122 
SCCF RECON,ioos:station:SCCF:13:1,2019-02-09T05:00:00Z,26.5255,-82.0032,2.31,6.45,1111122 
SCCF RECON,ioos:station:SCCF:13:1,2019-02-09T06:00:00Z,26.5255,-82.0032,2.38,5.65,1111122 
SCCF RECON,ioos:station:SCCF:13:1,2019-02-09T07:00:00Z,26.5255,-82.0032,2.43,5.55,1111122 
SCCF RECON,ioos:station:SCCF:13:1,2019-02-09T08:00:00Z,26.5255,-82.0032,2.455,5.57,1111122 
SCCF RECON,ioos:station:SCCF:13:1,2019-02-09T09:00:00Z,26.5255,-82.0032,2.46,5.34,1111122 
SCCF RECON,ioos:station:SCCF:13:1,2019-02-09T10:00:00Z,26.5255,-82.0032,2.39,5.2,1111122 
SCCF RECON,ioos:station:SCCF:13:1,2019-02-09T11:00:00Z,26.5255,-82.0032,2.301,5.25,1111122 
SCCF RECON,ioos:station:SCCF:13:1,2019-02-09T12:00:00Z,26.5255,-82.0032,2.23,5.33,1111122 
SCCF RECON,ioos:station:SCCF:13:1,2019-02-09T13:00:00Z,26.5255,-82.0032,2.171,5.8,1111122 
SCCF RECON,ioos:station:SCCF:13:1,2019-02-09T14:00:00Z,26.5255,-82.0032,2.11,6.09,1111122 
SCCF RECON,ioos:station:SCCF:13:1,2019-02-09T15:00:00Z,26.5255,-82.0032,2.059,6.4,1111122 
SCCF RECON,ioos:station:SCCF:13:1,2019-02-09T16:00:00Z,26.5255,-82.0032,2.05,6.66,1111122 
SCCF RECON,ioos:station:SCCF:13:1,2019-02-09T17:00:00Z,26.5255,-82.0032,2.13,6.65,1111122 
SCCF RECON,ioos:station:SCCF:13:1,2019-02-09T18:00:00Z,26.5255,-82.0032,2.223,6.33,1111122 
SCCF RECON,ioos:station:SCCF:13:1,2019-02-09T19:00:00Z,26.5255,-82.0032,2.31,6.35,1111122 
SCCF RECON,ioos:station:SCCF:13:1,2019-02-09T20:00:00Z,26.5255,-82.0032,2.374,5.81,1111122 
SCCF RECON,ioos:station:SCCF:13:1,2019-02-09T21:00:00Z,26.5255,-82.0032,2.401,5.84,1111122 
SCCF RECON,ioos:station:SCCF:13:1,2019-02-09T22:00:00Z,26.5255,-82.0032,2.391,5.9,1111122 
SCCF RECON,ioos:station:SCCF:13:1,2019-02-10T05:00:00Z,26.5255,-82.0032,2.15,6.03,1111122 
SCCF RECON,ioos:station:SCCF:13:1,2019-02-10T06:00:00Z,26.5255,-82.0032,2.243,5.77,1111122 
SCCF RECON,ioos:station:SCCF:13:1,2019-02-10T07:00:00Z,26.5255,-82.0032,2.32,5.32,1111122 
SCCF RECON,ioos:station:SCCF:13:1,2019-02-10T08:00:00Z,26.5255,-82.0032,2.37,5.41,1111122 
SCCF RECON,ioos:station:SCCF:13:1,2019-02-10T09:00:00Z,26.5255,-82.0032,2.414,5.4,1111122 
SCCF RECON,ioos:station:SCCF:13:1,2019-02-10T10:00:00Z,26.5255,-82.0032,2.4,5.05,1111122 
SCCF RECON,ioos:station:SCCF:13:1,2019-02-10T11:00:00Z,26.5255,-82.0032,2.32,4.93,1111122 
SCCF RECON,ioos:station:SCCF:13:1,2019-02-10T12:00:00Z,26.5255,-82.0032,2.27,4.99,1111122 
SCCF RECON,ioos:station:SCCF:13:1,2019-02-10T13:00:00Z,26.5255,-82.0032,2.205,5.07,1111122 
SCCF RECON,ioos:station:SCCF:13:1,2019-02-10T14:00:00Z,26.5255,-82.0032,2.149,5.48,1111122 
SCCF RECON,ioos:station:SCCF:13:1,2019-02-10T15:00:00Z,26.5255,-82.0032,2.087,5.88,1111122 
SCCF RECON,ioos:station:SCCF:13:1,2019-02-10T16:00:00Z,26.5255,-82.0032,2.07,6.08,1111122 
SCCF RECON,ioos:station:SCCF:13:1,2019-02-10T17:00:00Z,26.5255,-82.0032,2.139,6.12,1111122 
SCCF RECON,ioos:station:SCCF:13:1,2019-02-10T18:00:00Z,26.5255,-82.0032,2.26,5.77,1111122 
SCCF RECON,ioos:station:SCCF:13:1,2019-02-10T19:00:00Z,26.5255,-82.0032,2.35,5.53,1111122 
SCCF RECON,ioos:station:SCCF:13:1,2019-02-10T20:00:00Z,26.5255,-82.0032,2.419,5.52,1111122 
SCCF RECON,ioos:station:SCCF:13:1,2019-02-10T21:00:00Z,26.5255,-82.0032,2.476,5.99,1111122 
SCCF RECON,ioos:station:SCCF:13:1,2019-02-10T22:00:00Z,26.5255,-82.0032,2.529,5.94,1111122 
SCCF RECON,ioos:station:SCCF:13:1,2019-02-11T06:00:00Z,26.5255,-82.0032,2.27,5.76,1111122 
SCCF RECON,ioos:station:SCCF:13:1,2019-02-11T07:00:00Z,26.5255,-82.0032,2.35,5.31,1111122 
SCCF RECON,ioos:station:SCCF:13:1,2019-02-11T08:00:00Z,26.5255,-82.0032,2.406,5.08,1111122 
SCCF RECON,ioos:station:SCCF:13:1,2019-02-11T09:00:00Z,26.5255,-82.0032,2.45,5.14,1111122 
SCCF RECON,ioos:station:SCCF:13:1,2019-02-11T10:00:00Z,26.5255,-82.0032,2.47,5.35,1111122 
SCCF RECON,ioos:station:SCCF:13:1,2019-02-11T11:00:00Z,26.5255,-82.0032,2.47,5.19,1111122 
SCCF RECON,ioos:station:SCCF:13:1,2019-02-11T12:00:00Z,26.5255,-82.0032,2.449,5.01,1111122 
SCCF RECON,ioos:station:SCCF:13:1,2019-02-11T13:00:00Z,26.5255,-82.0032,2.38,4.94,1111122 
SCCF RECON,ioos:station:SCCF:13:1,2019-02-11T14:00:00Z,26.5255,-82.0032,2.31,5.09,1111122 
SCCF RECON,ioos:station:SCCF:13:1,2019-02-11T15:00:00Z,26.5255,-82.0032,2.258,5.55,1111122 
SCCF RECON,ioos:station:SCCF:13:1,2019-02-11T16:00:00Z,26.5255,-82.0032,2.21,5.68,1111122 
SCCF RECON,ioos:station:SCCF:13:1,2019-02-11T17:00:00Z,26.5255,-82.0032,2.22,5.73,1111122 
SCCF RECON,ioos:station:SCCF:13:1,2019-02-11T18:00:00Z,26.5255,-82.0032,2.282,5.86,1111122 
SCCF RECON,ioos:station:SCCF:13:1,2019-02-11T19:00:00Z,26.5255,-82.0032,2.357,6.25,1111122 
SCCF RECON,ioos:station:SCCF:13:1,2019-02-11T20:00:00Z,26.5255,-82.0032,2.42,5.82,1111122 
SCCF RECON,ioos:station:SCCF:13:1,2019-02-11T21:00:00Z,26.5255,-82.0032,2.48,5.66,1111122 
SCCF RECON,ioos:station:SCCF:13:1,2019-02-11T22:00:00Z,26.5255,-82.0032,2.54,6.02,1111122 
SCCF RECON,ioos:station:SCCF:13:1,2019-02-12T05:00:00Z,26.5255,-82.0032,2.181,5.86,1111122 
SCCF RECON,ioos:station:SCCF:13:1,2019-02-12T06:00:00Z,26.5255,-82.0032,2.188,5.88,1111122 
SCCF RECON,ioos:station:SCCF:13:1,2019-02-12T07:00:00Z,26.5255,-82.0032,2.24,5.8,1111122 
SCCF RECON,ioos:station:SCCF:13:1,2019-02-12T08:00:00Z,26.5255,-82.0032,2.309,5.59,1111122 
SCCF RECON,ioos:station:SCCF:13:1,2019-02-12T09:00:00Z,26.5255,-82.0032,2.36,5.09,1111122 
SCCF RECON,ioos:station:SCCF:13:1,2019-02-12T10:00:00Z,26.5255,-82.0032,2.4,5.07,1111122 
SCCF RECON,ioos:station:SCCF:13:1,2019-02-12T11:00:00Z,26.5255,-82.0032,2.45,5.2,1111122 
SCCF RECON,ioos:station:SCCF:13:1,2019-02-12T12:00:00Z,26.5255,-82.0032,2.47,5.11,1111122 
SCCF RECON,ioos:station:SCCF:13:1,2019-02-12T13:00:00Z,26.5255,-82.0032,2.47,4.96,1111122 
SCCF RECON,ioos:station:SCCF:13:1,2019-02-12T14:00:00Z,26.5255,-82.0032,2.44,5.07,1111122 
SCCF RECON,ioos:station:SCCF:13:1,2019-02-12T15:00:00Z,26.5255,-82.0032,2.41,5.08,1111122 
SCCF RECON,ioos:station:SCCF:13:1,2019-02-12T16:00:00Z,26.5255,-82.0032,2.38,5.33,1111122 
SCCF RECON,ioos:station:SCCF:13:1,2019-02-12T17:00:00Z,26.5255,-82.0032,2.376,5.36,1111122 
SCCF RECON,ioos:station:SCCF:13:1,2019-02-12T18:00:00Z,26.5255,-82.0032,2.4,5.56,1111122 
SCCF RECON,ioos:station:SCCF:13:1,2019-02-12T19:00:00Z,26.5255,-82.0032,2.44,5.7,1111122 
SCCF RECON,ioos:station:SCCF:13:1,2019-02-12T20:00:00Z,26.5255,-82.0032,2.494,5.94,1111122 
SCCF RECON,ioos:station:SCCF:13:1,2019-02-12T21:00:00Z,26.5255,-82.0032,2.552,5.83,1111122 
SCCF RECON,ioos:station:SCCF:13:1,2019-02-12T22:00:00Z,26.5255,-82.0032,2.593,5.73,1111122 
SCCF RECON,ioos:station:SCCF:13:1,2019-02-13T05:00:00Z,26.5255,-82.0032,2.263,5.51,1111122 
SCCF RECON,ioos:station:SCCF:13:1,2019-02-13T06:00:00Z,26.5255,-82.0032,2.18,5.58,1111122 
SCCF RECON,ioos:station:SCCF:13:1,2019-02-13T07:00:00Z,26.5255,-82.0032,2.16,5.53,1111122 
SCCF RECON,ioos:station:SCCF:13:1,2019-02-13T08:00:00Z,26.5255,-82.0032,2.18,5.45,1111122 
SCCF RECON,ioos:station:SCCF:13:1,2019-02-13T09:00:00Z,26.5255,-82.0032,2.19,5.36,1111122 
SCCF RECON,ioos:station:SCCF:13:1,2019-02-13T10:00:00Z,26.5255,-82.0032,2.18,5.3,1111122 
SCCF RECON,ioos:station:SCCF:13:1,2019-02-13T11:00:00Z,26.5255,-82.0032,2.18,5.29,1111122 
SCCF RECON,ioos:station:SCCF:13:1,2019-02-13T12:00:00Z,26.5255,-82.0032,2.18,5.32,1111122 
SCCF RECON,ioos:station:SCCF:13:1,2019-02-13T13:00:00Z,26.5255,-82.0032,2.103,5.3,1111122 
SCCF RECON,ioos:station:SCCF:13:1,2019-02-13T14:00:00Z,26.5255,-82.0032,2.11,5.31,1111122 
SCCF RECON,ioos:station:SCCF:13:1,2019-02-13T15:00:00Z,26.5255,-82.0032,2.119,5.34,1111122 
SCCF RECON,ioos:station:SCCF:13:1,2019-02-13T16:00:00Z,26.5255,-82.0032,2.058,5.43,1111122 
SCCF RECON,ioos:station:SCCF:13:1,2019-02-13T17:00:00Z,26.5255,-82.0032,2.04,5.54,1111122 
SCCF RECON,ioos:station:SCCF:13:1,2019-02-13T18:00:00Z,26.5255,-82.0032,2.05,5.61,1111122 
SCCF RECON,ioos:station:SCCF:13:1,2019-02-13T19:00:00Z,26.5255,-82.0032,2.07,5.51,1111122 
SCCF RECON,ioos:station:SCCF:13:1,2019-02-13T20:00:00Z,26.5255,-82.0032,2.06,5.73,1111122 
SCCF RECON,ioos:station:SCCF:13:1,2019-02-14T20:00:00Z,26.5255,-82.0032,2.251,5.89,1111122 
SCCF RECON,ioos:station:SCCF:13:1,2019-02-14T22:00:00Z,26.5255,-82.0032,2.404,5.56,1111122 
SCCF RECON,ioos:station:SCCF:13:1,2019-02-15T06:00:00Z,26.5255,-82.0032,2.24,5.81,1111122 
SCCF RECON,ioos:station:SCCF:13:1,2019-02-15T07:00:00Z,26.5255,-82.0032,2.156,6.02,1111122 
SCCF RECON,ioos:station:SCCF:13:1,2019-02-15T08:00:00Z,26.5255,-82.0032,2.069,6.31,1111122 
SCCF RECON,ioos:station:SCCF:13:1,2019-02-15T09:00:00Z,26.5255,-82.0032,2.0,6.01,1111122 
SCCF RECON,ioos:station:SCCF:13:1,2019-02-15T10:00:00Z,26.5255,-82.0032,1.98,6.03,1111122 
SCCF RECON,ioos:station:SCCF:13:1,2019-02-15T11:00:00Z,26.5255,-82.0032,2.04,6.02,1111122 
SCCF RECON,ioos:station:SCCF:13:1,2019-02-15T12:00:00Z,26.5255,-82.0032,2.14,5.89,1111122 
SCCF RECON,ioos:station:SCCF:13:1,2019-02-15T13:00:00Z,26.5255,-82.0032,2.233,5.6,1111122 
SCCF RECON,ioos:station:SCCF:13:1,2019-02-15T15:00:00Z,26.5255,-82.0032,2.36,5.64,1111122 
SCCF RECON,ioos:station:SCCF:13:1,2019-02-15T16:00:00Z,26.5255,-82.0032,2.36,5.5,1111122 
SCCF RECON,ioos:station:SCCF:13:1,2019-02-15T17:00:00Z,26.5255,-82.0032,2.37,5.75,1111122 
SCCF RECON,ioos:station:SCCF:13:1,2019-02-15T18:00:00Z,26.5255,-82.0032,2.34,5.98,1111122 
SCCF RECON,ioos:station:SCCF:13:1,2019-02-15T19:00:00Z,26.5255,-82.0032,2.322,5.84,1111122 
SCCF RECON,ioos:station:SCCF:13:1,2019-02-15T20:00:00Z,26.5255,-82.0032,2.345,5.88,1111122 
SCCF RECON,ioos:station:SCCF:13:1,2019-02-15T21:00:00Z,26.5255,-82.0032,2.364,5.7,1111122 
SCCF RECON,ioos:station:SCCF:13:1,2019-02-15T22:00:00Z,26.5255,-82.0032,2.409,5.93,1111122 
SCCF RECON,ioos:station:SCCF:13:1,2019-02-16T06:00:00Z,26.5255,-82.0032,2.35,6.09,1111122 
SCCF RECON,ioos:station:SCCF:13:1,2019-02-16T07:00:00Z,26.5255,-82.0032,2.24,5.94,1111122 
SCCF RECON,ioos:station:SCCF:13:1,2019-02-16T08:00:00Z,26.5255,-82.0032,2.15,5.98,1111122 
SCCF RECON,ioos:station:SCCF:13:1,2019-02-16T09:00:00Z,26.5255,-82.0032,2.06,6.18,1111122 
SCCF RECON,ioos:station:SCCF:13:1,2019-02-16T10:00:00Z,26.5255,-82.0032,2.0,6.12,1111122 
SCCF RECON,ioos:station:SCCF:13:1,2019-02-16T11:00:00Z,26.5255,-82.0032,1.997,6.06,1111122 
SCCF RECON,ioos:station:SCCF:13:1,2019-02-16T12:00:00Z,26.5255,-82.0032,2.11,5.97,1111122 
SCCF RECON,ioos:station:SCCF:13:1,2019-02-16T13:00:00Z,26.5255,-82.0032,2.22,5.88,1111122 
SCCF RECON,ioos:station:SCCF:13:1,2019-02-16T14:00:00Z,26.5255,-82.0032,2.308,5.43,1111122 
SCCF RECON,ioos:station:SCCF:13:1,2019-02-16T15:00:00Z,26.5255,-82.0032,2.36,5.76,1111122 
SCCF RECON,ioos:station:SCCF:13:1,2019-02-16T16:00:00Z,26.5255,-82.0032,2.416,5.87,1111122 
SCCF RECON,ioos:station:SCCF:13:1,2019-02-16T17:00:00Z,26.5255,-82.0032,2.469,5.78,1111122 
SCCF RECON,ioos:station:SCCF:13:1,2019-02-16T18:00:00Z,26.5255,-82.0032,2.466,6.01,1111122 
SCCF RECON,ioos:station:SCCF:13:1,2019-02-16T19:00:00Z,26.5255,-82.0032,2.464,6.27,1111122 
SCCF RECON,ioos:station:SCCF:13:1,2019-02-16T20:00:00Z,26.5255,-82.0032,2.419,6.24,1111122 